Regional Weather Roundup
Issued by NWS

Home | Current Version | Previous Version | Graphics & Text | Print | Product List | Glossary On
Versions: 1 2 3 4 5 6 7 8 9 10 11 12 13 14 15 16 17 18 19 20 21 22 23 24 25 26 27 28 29 30 31 32 33 34 35 36 37 38 39 40 41 42 43 44 45 46 47 48 49 50
000
ASUS43 KOAX 252110
RWRNE

WEATHER ROUNDUP FOR NEBRASKA
NATIONAL WEATHER SERVICE OMAHA NE
300 PM CST TUE NOV 25 2014

NOTES: SATELLITE DATA IS BEING USED TO AUGMENT CLOUD COVER ABOVE
       12000 FEET.
       "FAIR" INDICATES FEW OR NO CLOUDS BELOW 12,000 FEET WITH NO
       SIGNIFICANT WEATHER AND/OR OBSTRUCTIONS TO VISIBILITY.

  * THESE STATIONS DO NOT REPORT WEATHER SUCH AS RAIN...SNOW OR FOG.

NEZ001>004-019>022-054>056-252200-
NEBRASKA PANHANDLE

CITY           SKY/WX    TMP DP  RH WIND       PRES   REMARKS
SCOTTSBLUFF    LGT RAIN  40  32  73 NW29G41   29.84R WCI  29
ALLIANCE       CLOUDY    45  23  42 NW23G32   29.78R
CHADRON        CLOUDY    50  29  44 NW20      29.81R
KIMBALL        CLOUDY    46  19  34 NW24G32   29.81S
SIDNEY         CLOUDY    46  21  37 NW31G41   29.82S
$$

NEZ057>060-069>072-079>082-252200-
SOUTHWEST NEBRASKA

CITY           SKY/WX    TMP DP  RH WIND       PRES   REMARKS
NORTH PLATTE   CLOUDY    43  25  49 SW14      29.83F
IMPERIAL       CLOUDY    49  17  28 W14G21    29.82F
LEXINGTON      CLOUDY    46  19  33 SW12G28   29.85F
MCCOOK         CLOUDY    50  12  21 SW17G23   29.86F
OGALLALA       CLOUDY    46  22  39 W9        29.81F
$$

NEZ005>010-023>029-035>040-094-252200-
NORTH CENTRAL NEBRASKA

CITY           SKY/WX    TMP DP  RH WIND       PRES   REMARKS
VALENTINE      CLOUDY    42  21  43 SW7       29.76F
AINSWORTH      CLOUDY    42  18  37 SW12G17   29.77F
BROKEN BOW     CLOUDY    44  24  45 W24G33    29.84F
O`NEILL        CLOUDY    44  22  43 S12       29.83S
ORD            CLOUDY    45  19  35 SW15      29.84F
THEDFORD       CLOUDY    42  22  43 SW12      29.79F
$$

NEZ041-046>049-061>064-073>077-083>087-252200-
SOUTH CENTRAL NEBRASKA

CITY           SKY/WX    TMP DP  RH WIND       PRES   REMARKS
GRAND ISLAND   CLOUDY    45  22  40 SW16      29.90F
AURORA         CLOUDY    45  24  43 S10       29.90F
HASTINGS       CLOUDY    45  21  38 SW14G22   29.89F
HEBRON         PTSUNNY   48  21  34 SW9       29.96F
HOLDREGE       CLOUDY    46  15  28 SW18G24   29.87F
KEARNEY *      CLOUDY    45  19  36 S17       29.88F
YORK           CLOUDY    46  25  42 SW15      29.92F
$$

NEZ011>018-030>034-042>045-252200-
NORTHEAST NEBRASKA

CITY           SKY/WX    TMP DP  RH WIND       PRES   REMARKS
NORFOLK        PTSUNNY   44  26  49 S10       29.88F
ALBION         PTSUNNY   45  23  41 S10       29.87F
BLAIR          MOSUNNY   43  25  48 S16       29.97F
COLUMBUS *     PTSUNNY   45  25  45 S14G20    29.93F
FREMONT        MOSUNNY   44  27  51 SE10      29.96F
TEKAMAH        MOSUNNY   44  26  49 S16       29.97F
WAYNE          PTSUNNY   43  26  51 S13       29.90F
$$

NEZ050>053-065>068-078-088>093-252200-
SOUTHEAST NEBRASKA

CITY           SKY/WX    TMP DP  RH WIND       PRES   REMARKS
LINCOLN        MOSUNNY   48  24  39 SW14      29.97F
OMAHA EPPLEY   PTSUNNY   42  22  44 S15       30.01F
BEATRICE       SUNNY     46  25  44 SW15      29.99F
FALLS CITY     SUNNY     45  23  42 S10       30.04F
NEBRASKA CITY  MOSUNNY   45  20  37 SW13      30.01F
PLATTSMOUTH    MOSUNNY   44  24  46 S15       30.00F
$$

NEZ044-045-051>053-067-252200-
OMAHA AREA

CITY           SKY/WX    TMP DP  RH WIND       PRES   REMARKS
OMAHA EPPLEY   PTSUNNY   42  22  44 S15       30.01F
BLAIR          MOSUNNY   43  25  48 S16       29.97F
FREMONT        MOSUNNY   44  27  51 SE10      29.96F
MILLARD        MOSUNNY   44  26  49 S9        29.98F
OFFUTT AFB     MOSUNNY   44  24  46 S12       29.99F
PLATTSMOUTH    MOSUNNY   44  24  46 S15       30.00F
WAHOO          FAIR      45  25  45 S13       29.95F
$$



USA.gov is the U.S. government's official web portal to all federal, state and local government web resources and services.